Flag for Palestinian Territories Weather past 2 weeks in Nablus, West Bank, Palestinian Territories

75 °F


Feels Like: 77 °F
Forecast: 66 / 80 °F
Wind: 3 mph from North

Location: Ben Gurion International Airport

Current Time: Oct 4, 2015 at 7:01:22 AM

Latest Report: Oct 4, 2015 at 6:20 AM

Visibility: 10 mi

Pressure: 30.07 "Hg (28.28 "Hg at 534m altitude)

Humidity: 74%

Dew point: 66 °F

Location of NablusLocation

Historic Weather in Nablus — Graph


Nablus temperature yesterday

Maximum temperature yesterday: 86 °F (at 10:50 AM)
Minimum temperature yesterday: 73 °F (at 5:50 AM)
Average temperature yesterday: 80 °F

Past Weeks' High & Low Weather Summary

High99 °F (Sep 20, 1:20 PM)83% (Sep 19, 5:20 AM)30.12 "Hg (Sep 19, 5:20 AM)
Low70 °F (Sep 25, 6:50 AM)18% (Sep 23, 11:50 AM)29.77 "Hg (Sep 20, 2:20 PM)
Average82 °F59%29.93 "Hg
* Reported Sep 19 5:20 AM — Oct 4 5:20 AM, Nablus, Weather by CustomWeather, © 2015

Note: Actual official high and low records may vary slightly from our data, if they occured in-between our weather recording intervals... More about our weather records


Nablus weather history for previous 24 hours

Time TempWeatherWind HumidityBarometerVisibility
5:20 AM
Sun, Oct 4
75 °FClear.3 mph78%30.07 "Hg10 mi
4:50 AM75 °FPassing clouds.3 mph78%30.07 "HgN/A
4:20 AM73 °FPassing clouds.1 mph83%30.09 "HgN/A
3:50 AM75 °FPassing clouds.3 mph78%30.07 "HgN/A
3:20 AM75 °FPassing clouds.3 mph78%30.07 "HgN/A
2:50 AM75 °FPassing clouds.3 mph83%30.07 "HgN/A
2:20 AM75 °FPassing clouds.2 mph83%30.07 "HgN/A
1:50 AM77 °FPassing clouds.2 mph79%30.09 "HgN/A
1:20 AM77 °FPassing clouds.6 mph79%30.09 "HgN/A
12:20 AM77 °FPassing clouds.1 mph74%30.07 "HgN/A
11:50 PM
Sat, Oct 3
79 °FPassing clouds.5 mph79%30.09 "HgN/A
11:20 PM77 °FClear.5 mph79%30.09 "Hg10 mi
10:50 PM79 °FClear.3 mph74%30.09 "Hg10 mi
10:20 PM79 °FClear.3 mph74%30.09 "Hg10 mi
9:50 PM79 °FPassing clouds.6 mph79%30.09 "HgN/A
9:20 PM79 °FPassing clouds.5 mph79%30.09 "HgN/A
8:50 PM79 °FPassing clouds.5 mph74%30.09 "HgN/A
8:20 PM79 °FPassing clouds.7 mph74%30.09 "HgN/A
7:50 PM81 °FClear.6 mph70%30.07 "Hg10 mi
7:20 PM81 °FClear.7 mph70%30.07 "Hg10 mi
6:50 PM81 °FClear.8 mph70%30.07 "Hg10 mi
6:20 PM82 °FSunny.10 mph66%30.07 "Hg10 mi
5:50 PM82 °FSunny.10 mph66%30.07 "Hg10 mi
5:20 PM84 °FSunny.12 mph58%30.07 "Hg10 mi
4:50 PM84 °FSunny.14 mph62%30.07 "Hg10 mi
4:20 PM84 °FSunny.13 mph62%30.07 "Hg10 mi
3:50 PM86 °FSunny.12 mph59%30.07 "Hg10 mi
3:20 PM86 °FSunny.12 mph59%30.07 "Hg10 mi
2:50 PM86 °FSunny.13 mph59%30.07 "Hg10 mi
2:20 PM84 °FSunny.13 mph58%30.07 "Hg10 mi
1:50 PM86 °FSunny.13 mph55%30.07 "Hg10 mi
1:20 PM86 °FSunny.13 mph55%30.07 "Hg10 mi
12:50 PM86 °FPassing clouds.12 mph59%30.09 "HgN/A
12:20 PM86 °FPassing clouds.9 mph55%30.09 "HgN/A
11:50 AM86 °FPassing clouds.9 mph55%30.09 "HgN/A
11:20 AM86 °FSunny.5 mph49%30.12 "Hg10 mi
10:50 AM86 °FPassing clouds.5 mph49%30.12 "HgN/A
10:20 AM84 °FSunny.5 mph55%30.12 "Hg10 mi
9:50 AM82 °FPassing clouds.5 mph62%30.12 "HgN/A
9:20 AM81 °FPassing clouds.2 mph66%30.12 "HgN/A
8:50 AM79 °FPassing clouds.2 mph70%30.12 "HgN/A
8:20 AM77 °FSunny.3 mph74%30.12 "Hg10 mi
7:50 AM75 °FPassing clouds.3 mph74%30.09 "HgN/A
7:20 AM73 °FPassing clouds.1 mph78%30.09 "HgN/A
Weather by CustomWeather, © 2015

See weather overviewHow to use our weather pages